Location: Gugi
(45.4667°N, 11.1000°E)
Time: 16:43:19
(UTC+00:00)

Sich 1 - Pass Details

Date: 17 November 2019
Orbit: 595 x 625 km, 82.5° (Epoch: 08 December)

Event Time Altitude Azimuth Distance (km) Brightness Sun altitude
Rises 16:51:09 0° 352° (N) 2,872 6.4 -11.8°
Reaches altitude 10° 16:53:22 10° 353° (N) 1,968 5.6 -12.2°
Maximum altitude 16:57:43 82° 81° (E) 623 2.9 -13.0°
Drops below altitude 10° 17:02:06 10° 170° (S) 1,971 5.7 -13.7°
Sets 17:04:19 0° 171° (S) 2,876 6.5 -14.1°
